Location: Hurecourt
(47.9030°N, 6.0653°E)
Time: 21:07:25
(UTC+00:00)

Cosmos 2100 Rocket - Pass Details

Date: 14 July 2020
Orbit: 955 x 1002 km, 82.9° (Epoch: 14 August)

Event Time Altitude Azimuth Distance (km) Brightness Sun altitude
Exits shadow 00:45:06 28° 169° (S) 1,747 4.8 -19.0°
Maximum altitude 00:48:31 68° 95° (E) 1,050 4.2 -18.9°
Drops below altitude 10° 00:54:43 10° 13° (NNE) 2,725 7.6 -18.6°
Sets 00:57:13 0° 12° (NNE) 3,670 8.7 -18.4°
